Location: Camaret
(48.2753°N, 4.5961°W)
Time: 01:25:04
(UTC+00:00)

Cosmos 1709 Rocket - Pass Details

Date: 29 October 2020
Orbit: 949 x 1001 km, 82.9° (Epoch: 26 November)

Event Time Altitude Azimuth Distance (km) Brightness Sun altitude
Rises 18:35:47 0° 354° (N) 3,729 7.1 -15.8°
Reaches altitude 10° 18:38:26 10° 360° (N) 2,780 6.4 -16.3°
Maximum altitude 18:44:37 49° 75° (ENE) 1,270 4.2 -17.3°
Drops below altitude 10° 18:50:45 10° 149° (SSE) 2,765 6.1 -18.3°
Sets 18:53:22 0° 155° (SSE) 3,707 6.8 -18.7°
